"read_dt","SO2 (ppb)","flags","PMT voltage (V)","lamp voltage (V)","lamp intensity (Hz)","internal temp (C)","react chamber temp (C)","sample flow (l/min)","pres (mmHg)","SO2 bkg (ppb)","SO2 coefficient"
2016-04-08 00:00:00,1717E-3,5C000400,-0724,0835,12093,024.3,045.3,0.262,763.9,01.16,0.508
2016-04-08 00:01:00,1856E-3,5C000400,-0724,0835,12260,024.3,045.3,0.262,763.9,01.16,0.508
2016-04-08 00:02:00,1703E-3,5C000400,-0724,0835,12019,024.3,045.3,0.262,763.9,01.16,0.508
2016-04-08 00:03:00,1810E-3,5C000400,-0724,0835,12031,024.3,045.3,0.262,763.9,01.16,0.508
2016-04-08 00:04:00,1814E-3,5C000400,-0724,0835,12210,024.3,045.4,0.262,763.9,01.16,0.508
2016-04-08 00:05:00,1748E-3,5C000400,-0724,0835,12088,024.3,045.3,0.262,763.9,01.16,0.508
2016-04-08 00:06:00,1742E-3,5C000400,-0724,0835,12253,024.3,045.3,0.262,763.9,01.16,0.508
2016-04-08 00:07:00,1773E-3,5C000400,-0724,0835,12098,024.3,045.3,0.263,763.8,01.16,0.508
2016-04-08 00:08:00,1736E-3,5C000400,-0724,0835,12083,024.3,045.3,0.262,763.8,01.16,0.508
2016-04-08 00:09:00,1755E-3,5C000400,-0724,0836,12130,024.3,045.3,0.262,763.8,01.16,0.508
2016-04-08 00:10:00,1834E-3,5C000400,-0724,0835,12109,024.3,045.3,0.262,763.8,01.16,0.508
2016-04-08 00:11:00,1761E-3,5C000400,-0724,0835,12058,024.3,045.3,0.262,763.9,01.16,0.508
2016-04-08 00:12:00,1839E-3,5C000400,-0724,0835,12263,024.3,045.3,0.262,763.9,01.16,0.508
2016-04-08 00:13:00,1903E-3,5C000400,-0724,0835,12051,024.4,045.3,0.262,763.8,01.16,0.508
2016-04-08 00:14:00,1684E-3,5C000400,-0724,0835,12125,024.4,045.3,0.262,763.9,01.16,0.508
2016-04-08 00:15:00,1845E-3,5C000400,-0724,0835,12135,024.4,045.3,0.261,763.9,01.16,0.508
2016-04-08 00:16:00,1701E-3,5C000400,-0724,0835,12203,024.4,045.3,0.262,763.8,01.16,0.508
2016-04-08 00:17:00,1828E-3,5C000400,-0724,0835,11860,024.4,045.3,0.262,763.8,01.16,0.508
2016-04-08 00:18:00,1743E-3,5C000400,-0724,0836,12103,024.4,045.3,0.262,763.8,01.16,0.508
2016-04-08 00:19:00,1794E-3,5C000400,-0724,0835,12175,024.4,045.3,0.261,763.8,01.16,0.508
2016-04-08 00:20:00,1823E-3,5C000400,-0724,0835,12176,024.4,045.3,0.262,763.8,01.16,0.508
2016-04-08 00:21:00,1720E-3,5C000400,-0724,0835,12204,024.4,045.3,0.262,763.8,01.16,0.508
2016-04-08 00:22:00,1738E-3,5C000400,-0724,0835,12208,024.4,045.3,0.262,763.8,01.16,0.508
2016-04-08 00:23:00,1654E-3,5C000400,-0724,0835,12136,024.4,045.3,0.261,763.8,01.16,0.508
2016-04-08 00:24:00,1850E-3,5C000400,-0724,0835,12198,024.4,045.3,0.262,763.8,01.16,0.508
2016-04-08 00:25:00,1712E-3,5C000400,-0724,0836,12093,024.4,045.3,0.262,763.8,01.16,0.508
2016-04-08 00:26:00,1692E-3,5C000400,-0724,0835,12169,024.4,045.3,0.261,763.8,01.16,0.508
2016-04-08 00:27:00,1745E-3,5C000400,-0724,0836,12226,024.4,045.3,0.262,763.8,01.16,0.508
2016-04-08 00:28:00,1772E-3,5C000400,-0724,0835,12233,024.4,045.3,0.262,763.8,01.16,0.508
2016-04-08 00:29:00,1889E-3,5C000400,-0724,0835,12192,024.4,045.3,0.261,763.8,01.16,0.508
2016-04-08 00:30:00,1782E-3,5C000400,-0724,0835,12101,024.4,045.3,0.262,763.8,01.16,0.508
2016-04-08 00:31:00,1743E-3,5C000400,-0724,0835,12158,024.4,045.3,0.262,763.8,01.16,0.508
2016-04-08 00:32:00,1852E-3,5C000400,-0724,0835,12037,024.5,045.3,0.261,763.8,01.16,0.508
2016-04-08 00:33:00,1751E-3,5C000400,-0724,0835,12250,024.5,045.3,0.262,763.8,01.16,0.508
2016-04-08 00:34:00,1697E-3,5C000400,-0724,0836,12071,024.5,045.3,0.262,763.8,01.16,0.508
2016-04-08 00:35:00,1779E-3,5C000400,-0724,0835,12282,024.5,045.3,0.262,763.8,01.16,0.508
2016-04-08 00:36:00,1666E-3,5C000400,-0724,0835,12139,024.5,045.3,0.261,763.9,01.16,0.508
2016-04-08 00:37:00,1697E-3,5C000400,-0724,0835,12005,024.5,045.3,0.262,763.9,01.16,0.508
2016-04-08 00:38:00,1771E-3,5C000400,-0724,0834,12208,024.5,045.3,0.262,763.9,01.16,0.508
2016-04-08 00:39:00,1824E-3,5C000400,-0724,0834,12213,024.5,045.3,0.261,763.9,01.16,0.508
2016-04-08 00:40:00,1846E-3,5C000400,-0724,0834,12207,024.5,045.3,0.262,763.9,01.16,0.508
2016-04-08 00:41:00,1740E-3,5C000400,-0724,0834,12271,024.5,045.3,0.262,763.9,01.16,0.508
2016-04-08 00:42:00,1813E-3,5C000400,-0724,0835,12074,024.5,045.3,0.261,763.9,01.16,0.508
2016-04-08 00:43:00,1943E-3,5C000400,-0724,0835,12108,024.6,045.3,0.261,763.9,01.16,0.508
2016-04-08 00:44:00,1768E-3,5C000400,-0724,0835,12093,024.6,045.3,0.262,763.9,01.16,0.508
2016-04-08 00:45:00,1797E-3,5C000400,-0724,0835,12274,024.6,045.3,0.261,763.9,01.16,0.508
2016-04-08 00:46:00,1760E-3,5C000400,-0724,0834,12005,024.6,045.3,0.261,763.8,01.16,0.508
2016-04-08 00:47:00,1773E-3,5C000400,-0724,0835,12111,024.6,045.3,0.262,763.8,01.16,0.508
2016-04-08 00:48:00,1755E-3,5C000400,-0724,0835,12210,024.6,045.3,0.262,763.9,01.16,0.508
2016-04-08 00:49:00,1730E-3,5C000400,-0724,0835,12249,024.6,045.3,0.261,763.9,01.16,0.508
2016-04-08 00:50:00,1798E-3,5C000400,-0724,0835,12182,024.6,045.3,0.261,763.9,01.16,0.508
2016-04-08 00:51:00,1868E-3,5C000400,-0724,0835,12235,024.6,045.3,0.262,763.9,01.16,0.508
2016-04-08 00:52:00,1823E-3,5C000400,-0724,0835,12163,024.6,045.3,0.262,763.9,01.16,0.508
2016-04-08 00:53:00,1874E-3,5C000400,-0724,0835,12134,024.6,045.3,0.261,763.9,01.16,0.508
2016-04-08 00:54:00,1656E-3,5C000400,-0724,0834,12133,024.6,045.3,0.261,763.9,01.16,0.508
2016-04-08 00:55:00,1806E-3,5C000400,-0724,0835,12233,024.6,045.3,0.261,763.9,01.16,0.508
2016-04-08 00:56:00,1838E-3,5C000400,-0724,0836,12147,024.6,045.3,0.261,763.9,01.16,0.508
2016-04-08 00:57:00,1750E-3,5C000400,-0724,0836,12184,024.6,045.3,0.262,763.9,01.16,0.508
2016-04-08 00:58:00,1659E-3,5C000400,-0724,0835,12156,024.6,045.3,0.261,763.9,01.16,0.508
2016-04-08 00:59:00,1803E-3,5C000400,-0724,0834,12128,024.6,045.3,0.261,763.9,01.16,0.508
2016-04-08 01:00:00,1737E-3,5C000400,-0724,0835,12116,024.6,045.3,0.261,763.9,01.16,0.508
2016-04-08 01:01:00,1862E-3,5C000400,-0724,0835,12221,024.7,045.3,0.261,763.9,01.16,0.508
2016-04-08 01:02:00,1842E-3,5C000400,-0724,0836,12214,024.7,045.3,0.261,763.9,01.16,0.508
2016-04-08 01:03:00,1903E-3,5C000400,-0724,0834,12102,024.7,045.3,0.261,763.9,01.16,0.508
2016-04-08 01:04:00,1665E-3,5C000400,-0724,0835,12138,024.7,045.3,0.261,763.9,01.16,0.508
2016-04-08 01:05:00,1789E-3,5C000400,-0724,0835,12105,024.7,045.3,0.261,763.9,01.16,0.508
2016-04-08 01:06:00,1836E-3,5C000400,-0724,0835,12062,024.7,045.3,0.261,763.9,01.16,0.508
2016-04-08 01:07:00,1736E-3,5C000400,-0724,0835,12192,024.7,045.3,0.262,763.9,01.16,0.508
2016-04-08 01:08:00,1754E-3,5C000400,-0724,0835,12209,024.7,045.3,0.262,763.9,01.16,0.508
2016-04-08 01:09:00,1779E-3,5C000400,-0724,0836,12014,024.7,045.3,0.262,763.9,01.16,0.508
2016-04-08 01:10:00,1664E-3,5C000400,-0724,0835,12068,024.7,045.3,0.262,763.9,01.16,0.508
2016-04-08 01:11:00,1743E-3,5C000400,-0724,0835,12114,024.7,045.3,0.261,763.9,01.16,0.508
2016-04-08 01:12:00,1721E-3,5C000400,-0724,0835,12186,024.7,045.3,0.261,763.9,01.16,0.508
2016-04-08 01:13:00,1780E-3,5C000400,-0724,0835,12023,024.8,045.3,0.261,763.9,01.16,0.508
2016-04-08 01:14:00,1702E-3,5C000400,-0724,0835,12208,024.8,045.3,0.261,763.9,01.16,0.508
2016-04-08 01:15:00,1767E-3,5C000400,-0724,0834,12050,024.7,045.3,0.261,763.9,01.16,0.508
2016-04-08 01:16:00,1834E-3,5C000400,-0724,0835,12050,024.8,045.3,0.261,763.9,01.16,0.508
2016-04-08 01:17:00,1847E-3,5C000400,-0724,0835,12189,024.8,045.3,0.261,763.9,01.16,0.508
2016-04-08 01:18:00,1685E-3,5C000400,-0724,0835,12254,024.8,045.3,0.261,763.9,01.16,0.508
2016-04-08 01:19:00,1787E-3,5C000400,-0724,0835,12033,024.8,045.3,0.261,763.9,01.16,0.508
2016-04-08 01:20:00,1647E-3,5C000400,-0724,0835,12272,024.8,045.3,0.261,763.9,01.16,0.508
2016-04-08 01:21:00,1746E-3,5C000400,-0724,0836,12027,024.8,045.3,0.261,763.9,01.16,0.508
2016-04-08 01:22:00,1778E-3,5C000400,-0724,0835,12258,024.8,045.3,0.261,763.9,01.16,0.508
2016-04-08 01:23:00,1738E-3,5C000400,-0724,0835,12281,024.8,045.3,0.261,763.8,01.16,0.508
2016-04-08 01:24:00,1717E-3,5C000400,-0724,0835,12235,024.8,045.3,0.260,763.8,01.16,0.508
2016-04-08 01:25:00,1922E-3,5C000400,-0724,0835,12112,024.8,045.3,0.261,763.9,01.16,0.508
2016-04-08 01:26:00,1809E-3,5C000400,-0724,0835,12166,024.8,045.3,0.261,763.9,01.16,0.508
2016-04-08 01:27:00,1804E-3,5C000400,-0724,0835,12075,024.8,045.4,0.261,763.8,01.16,0.508
2016-04-08 01:28:00,1866E-3,5C000400,-0724,0835,12058,024.9,045.3,0.261,763.8,01.16,0.508
2016-04-08 01:29:00,1674E-3,5C000400,-0724,0834,12263,024.9,045.3,0.261,763.8,01.16,0.508
2016-04-08 01:30:00,1736E-3,5C000400,-0724,0835,12173,024.9,045.3,0.261,763.8,01.16,0.508
2016-04-08 01:31:00,1611E-3,5C000400,-0724,0835,12113,024.9,045.3,0.260,763.8,01.16,0.508
2016-04-08 01:32:00,1799E-3,5C000400,-0724,0835,12185,024.9,045.3,0.261,763.9,01.16,0.508
2016-04-08 01:33:00,1884E-3,5C000400,-0724,0835,12149,024.9,045.3,0.261,763.9,01.16,0.508
2016-04-08 01:34:00,1666E-3,5C000400,-0724,0836,12126,024.9,045.3,0.261,763.9,01.16,0.508
2016-04-08 01:35:00,1782E-3,5C000400,-0724,0835,12156,024.9,045.3,0.261,763.8,01.16,0.508
2016-04-08 01:36:00,1838E-3,5C000400,-0724,0836,12135,024.9,045.4,0.260,763.9,01.16,0.508
2016-04-08 01:37:00,1841E-3,5C000400,-0724,0836,12244,024.9,045.3,0.261,763.9,01.16,0.508
2016-04-08 01:38:00,1666E-3,5C000400,-0724,0835,12060,024.9,045.3,0.261,763.9,01.16,0.508
2016-04-08 01:39:00,1775E-3,5C000400,-0724,0836,12234,024.9,045.3,0.261,763.9,01.16,0.508
2016-04-08 01:40:00,1673E-3,5C000400,-0724,0835,12022,024.9,045.3,0.260,763.9,01.16,0.508
2016-04-08 01:41:00,1818E-3,5C000400,-0724,0835,12124,024.9,045.3,0.261,763.9,01.16,0.508
2016-04-08 01:42:00,1791E-3,5C000400,-0724,0835,11987,025.0,045.3,0.261,763.9,01.16,0.508
2016-04-08 01:43:00,1877E-3,5C000400,-0724,0835,12074,025.0,045.3,0.261,763.9,01.16,0.508
2016-04-08 01:44:00,1665E-3,5C000400,-0724,0836,12196,025.0,045.3,0.260,763.9,01.16,0.508
2016-04-08 01:45:00,1824E-3,5C000400,-0724,0835,12017,025.0,045.3,0.261,763.9,01.16,0.508
2016-04-08 01:46:00,1665E-3,5C000400,-0724,0835,12179,025.0,045.3,0.261,763.9,01.16,0.508
2016-04-08 01:47:00,1652E-3,5C000400,-0724,0835,12127,025.0,045.3,0.261,763.9,01.16,0.508
2016-04-08 01:48:00,1828E-3,5C000400,-0724,0835,12103,025.0,045.3,0.260,763.9,01.16,0.508
2016-04-08 01:49:00,1706E-3,5C000400,-0724,0835,12052,025.0,045.3,0.261,763.9,01.16,0.508
2016-04-08 01:50:00,1715E-3,5C000400,-0724,0836,12127,025.0,045.3,0.261,763.9,01.16,0.508
2016-04-08 01:51:00,1786E-3,5C000400,-0724,0835,12013,025.0,045.3,0.261,763.9,01.16,0.508
2016-04-08 01:52:00,1857E-3,5C000400,-0724,0835,12165,025.0,045.3,0.260,763.9,01.16,0.508
2016-04-08 01:53:00,1702E-3,5C000400,-0724,0836,12231,025.0,045.3,0.260,763.9,01.16,0.508
2016-04-08 01:54:00,1782E-3,5C000400,-0724,0835,12206,025.1,045.3,0.261,763.9,01.16,0.508
2016-04-08 01:55:00,1687E-3,5C000400,-0724,0835,12082,025.1,045.3,0.261,763.9,01.16,0.508
2016-04-08 01:56:00,1669E-3,5C000400,-0724,0834,12069,025.1,045.3,0.261,763.9,01.16,0.508
2016-04-08 01:57:00,1751E-3,5C000400,-0724,0835,12102,025.1,045.3,0.260,763.9,01.16,0.508
2016-04-08 01:58:00,1845E-3,5C000400,-0724,0835,12145,025.1,045.3,0.261,763.9,01.16,0.508
2016-04-08 01:59:00,1726E-3,5C000400,-0724,0835,12131,025.1,045.3,0.261,763.9,01.16,0.508
2016-04-08 02:00:00,1894E-3,5C000400,-0724,0834,12112,025.1,045.3,0.261,763.9,01.16,0.508
2016-04-08 02:01:00,1705E-3,5C000400,-0724,0834,12045,025.1,045.3,0.260,763.9,01.16,0.508
2016-04-08 02:02:00,1727E-3,5C000400,-0724,0835,12271,025.1,045.3,0.260,763.9,01.16,0.508
2016-04-08 02:03:00,1803E-3,5C000400,-0724,0837,12388,025.1,045.3,0.260,763.9,01.16,0.508
2016-04-08 02:04:00,1730E-3,5C000400,-0724,0835,12157,025.1,045.3,0.261,764.0,01.16,0.508
2016-04-08 02:05:00,1806E-3,5C000400,-0724,0835,12193,025.1,045.3,0.261,763.9,01.16,0.508
2016-04-08 02:06:00,1820E-3,5C000400,-0724,0836,12191,025.2,045.3,0.260,764.0,01.16,0.508
2016-04-08 02:07:00,1717E-3,5C000400,-0724,0836,12093,025.2,045.3,0.260,763.9,01.16,0.508
2016-04-08 02:08:00,1718E-3,5C000400,-0724,0835,12211,025.1,045.3,0.261,763.9,01.16,0.508
2016-04-08 02:09:00,1677E-3,5C000400,-0724,0835,12195,025.2,045.4,0.261,763.9,01.16,0.508
2016-04-08 02:10:00,1790E-3,5C000400,-0724,0835,12154,025.2,045.3,0.261,763.9,01.16,0.508
2016-04-08 02:11:00,1829E-3,5C000400,-0724,0834,12174,025.2,045.3,0.261,764.0,01.16,0.508
2016-04-08 02:12:00,1800E-3,5C000400,-0724,0835,12213,025.2,045.3,0.260,763.9,01.16,0.508
2016-04-08 02:13:00,1666E-3,5C000400,-0724,0835,12064,025.2,045.3,0.260,764.0,01.16,0.508
2016-04-08 02:14:00,1607E-3,5C000400,-0724,0834,12105,025.2,045.3,0.260,763.9,01.16,0.508
2016-04-08 02:15:00,1781E-3,5C000400,-0724,0834,12176,025.2,045.3,0.260,763.9,01.16,0.508
2016-04-08 02:16:00,1664E-3,5C000400,-0724,0835,12102,025.2,045.3,0.260,763.9,01.16,0.508
2016-04-08 02:17:00,1785E-3,5C000400,-0724,0836,12142,025.2,045.3,0.260,764.0,01.16,0.508
2016-04-08 02:18:00,1866E-3,5C000400,-0724,0835,12216,025.2,045.3,0.260,763.9,01.16,0.508
2016-04-08 02:19:00,1722E-3,5C000400,-0724,0836,12073,025.3,045.3,0.260,763.9,01.16,0.508
2016-04-08 02:20:00,1687E-3,5C000400,-0724,0836,12123,025.2,045.3,0.260,763.9,01.16,0.508
2016-04-08 02:21:00,1731E-3,5C000400,-0724,0835,12058,025.3,045.4,0.260,763.9,01.16,0.508
2016-04-08 02:22:00,1825E-3,5C000400,-0724,0836,12213,025.3,045.3,0.260,763.9,01.16,0.508
2016-04-08 02:23:00,1960E-3,5C000400,-0724,0836,12169,025.3,045.4,0.260,763.9,01.16,0.508
2016-04-08 02:24:00,1859E-3,5C000400,-0724,0835,12076,025.3,045.3,0.260,764.0,01.16,0.508
2016-04-08 02:25:00,1691E-3,5C000400,-0724,0836,12139,025.3,045.3,0.260,763.9,01.16,0.508
2016-04-08 02:26:00,1787E-3,5C000400,-0724,0836,12203,025.3,045.3,0.260,763.9,01.16,0.508
2016-04-08 02:27:00,1881E-3,5C000400,-0724,0835,12164,025.3,045.4,0.260,763.9,01.16,0.508
2016-04-08 02:28:00,1721E-3,5C000400,-0724,0835,12234,025.3,045.3,0.260,763.9,01.16,0.508
2016-04-08 02:29:00,1751E-3,5C000400,-0724,0835,12129,025.3,045.3,0.260,764.0,01.16,0.508
2016-04-08 02:30:00,1856E-3,5C000400,-0724,0835,12133,025.3,045.3,0.260,764.0,01.16,0.508
2016-04-08 02:31:00,1783E-3,5C000400,-0724,0835,12109,025.3,045.3,0.260,763.9,01.16,0.508
2016-04-08 02:32:00,1707E-3,5C000400,-0724,0835,12134,025.3,045.3,0.260,763.9,01.16,0.508
2016-04-08 02:33:00,1795E-3,5C000400,-0724,0836,12216,025.3,045.3,0.260,763.9,01.16,0.508
2016-04-08 02:34:00,1808E-3,5C000400,-0724,0835,12012,025.3,045.3,0.260,763.9,01.16,0.508
2016-04-08 02:35:00,1712E-3,5C000400,-0724,0836,12079,025.4,045.3,0.260,763.9,01.16,0.508
2016-04-08 02:36:00,1698E-3,5C000400,-0724,0835,12179,025.4,045.3,0.260,763.9,01.16,0.508
2016-04-08 02:37:00,1795E-3,5C000400,-0724,0835,12150,025.4,045.3,0.260,763.9,01.16,0.508
2016-04-08 02:38:00,1856E-3,5C000400,-0724,0835,12026,025.4,045.3,0.260,763.9,01.16,0.508
2016-04-08 02:39:00,1795E-3,5C000400,-0724,0836,12156,025.4,045.3,0.260,763.9,01.16,0.508
2016-04-08 02:40:00,1832E-3,5C000400,-0724,0836,12139,025.4,045.3,0.260,763.9,01.16,0.508
2016-04-08 02:41:00,1786E-3,5C000400,-0724,0835,12203,025.5,045.3,0.260,763.9,01.16,0.508
2016-04-08 02:42:00,1683E-3,5C000400,-0724,0835,12089,025.4,045.3,0.260,763.9,01.16,0.508
2016-04-08 02:43:00,1775E-3,5C000400,-0724,0835,12195,025.4,045.4,0.260,763.9,01.16,0.508
2016-04-08 02:44:00,1772E-3,5C000400,-0724,0835,12110,025.4,045.3,0.259,763.9,01.16,0.508
2016-04-08 02:45:00,1755E-3,5C000400,-0724,0835,12143,025.5,045.4,0.260,763.9,01.16,0.508
2016-04-08 02:46:00,1800E-3,5C000400,-0724,0835,12127,025.5,045.3,0.260,763.9,01.16,0.508
2016-04-08 02:47:00,1706E-3,5C000400,-0724,0836,12196,025.5,045.4,0.260,763.9,01.16,0.508
2016-04-08 02:48:00,1824E-3,5C000400,-0724,0836,12215,025.5,045.4,0.260,763.9,01.16,0.508
2016-04-08 02:49:00,1813E-3,5C000400,-0724,0835,12125,025.5,045.4,0.259,763.9,01.16,0.508
2016-04-08 02:50:00,1752E-3,5C000400,-0724,0835,12150,025.5,045.3,0.260,763.9,01.16,0.508
2016-04-08 02:51:00,1813E-3,5C000400,-0724,0836,12163,025.5,045.3,0.260,764.0,01.16,0.508
2016-04-08 02:52:00,1837E-3,5C000400,-0724,0835,12246,025.5,045.4,0.260,764.0,01.16,0.508
2016-04-08 02:53:00,1826E-3,5C000400,-0724,0835,12180,025.5,045.4,0.260,764.0,01.16,0.508
2016-04-08 02:54:00,1786E-3,5C000400,-0724,0835,12095,025.5,045.4,0.259,763.9,01.16,0.508
2016-04-08 02:55:00,1704E-3,5C000400,-0724,0835,12143,025.6,045.3,0.260,764.0,01.16,0.508
2016-04-08 02:56:00,1792E-3,5C000400,-0724,0835,12222,025.5,045.3,0.260,764.0,01.16,0.508
2016-04-08 02:57:00,1786E-3,5C000400,-0724,0835,12277,025.6,045.3,0.260,764.0,01.16,0.508
2016-04-08 02:58:00,1693E-3,5C000400,-0724,0835,12100,025.6,045.3,0.259,764.0,01.16,0.508
2016-04-08 02:59:00,1632E-3,5C000400,-0724,0835,12183,025.6,045.4,0.259,764.0,01.16,0.508
2016-04-08 03:00:00,1819E-3,5C000400,-0724,0836,12214,025.6,045.4,0.260,763.9,01.16,0.508
2016-04-08 03:01:00,1768E-3,5C000400,-0724,0836,12000,025.6,045.3,0.260,763.9,01.16,0.508
2016-04-08 03:02:00,1840E-3,5C000400,-0724,0835,12183,025.6,045.3,0.260,764.0,01.16,0.508
2016-04-08 03:03:00,1854E-3,5C000400,-0724,0835,12160,025.6,045.3,0.260,764.0,01.16,0.508
2016-04-08 03:04:00,1779E-3,5C000400,-0724,0835,12120,025.6,045.4,0.259,764.0,01.16,0.508
2016-04-08 03:05:00,1809E-3,5C000400,-0724,0835,12122,025.6,045.4,0.259,764.0,01.16,0.508
2016-04-08 03:06:00,1761E-3,5C000400,-0724,0835,11993,025.6,045.4,0.260,764.0,01.16,0.508
2016-04-08 03:07:00,1788E-3,5C000400,-0724,0836,12251,025.6,045.3,0.260,763.9,01.16,0.508
2016-04-08 03:08:00,1817E-3,5C000400,-0724,0836,12179,025.7,045.3,0.260,764.0,01.16,0.508
2016-04-08 03:09:00,1918E-3,5C000400,-0724,0836,12029,025.6,045.4,0.259,763.9,01.16,0.508
2016-04-08 03:10:00,1847E-3,5C000400,-0724,0835,12337,025.7,045.4,0.260,764.0,01.16,0.508
2016-04-08 03:11:00,1731E-3,5C000400,-0724,0835,12274,025.7,045.3,0.260,764.0,01.16,0.508
2016-04-08 03:12:00,1742E-3,5C000400,-0724,0835,12135,025.7,045.3,0.260,764.0,01.16,0.508
2016-04-08 03:13:00,1745E-3,5C000400,-0724,0836,12162,025.7,045.3,0.260,764.0,01.16,0.508
2016-04-08 03:14:00,1774E-3,5C000400,-0724,0835,12194,025.7,045.3,0.260,764.0,01.16,0.508
2016-04-08 03:15:00,1840E-3,5C000400,-0724,0834,12203,025.7,045.3,0.259,764.0,01.16,0.508
2016-04-08 03:16:00,1748E-3,5C000400,-0724,0835,12148,025.7,045.3,0.259,764.0,01.16,0.508
2016-04-08 03:17:00,1768E-3,5C000400,-0724,0835,12145,025.7,045.3,0.259,764.0,01.16,0.508
2016-04-08 03:18:00,1842E-3,5C000400,-0724,0836,12058,025.8,045.4,0.259,764.0,01.16,0.508
2016-04-08 03:19:00,1758E-3,5C000400,-0724,0836,12139,025.8,045.4,0.259,764.0,01.16,0.508
2016-04-08 03:20:00,1795E-3,5C000400,-0724,0836,12225,025.8,045.4,0.259,764.0,01.16,0.508
2016-04-08 03:21:00,1720E-3,5C000400,-0724,0835,12220,025.8,045.4,0.259,764.0,01.16,0.508
2016-04-08 03:22:00,1699E-3,5C000400,-0724,0836,12172,025.8,045.3,0.259,764.0,01.16,0.508
2016-04-08 03:23:00,1780E-3,5C000400,-0724,0835,11927,025.8,045.3,0.259,764.0,01.16,0.508
2016-04-08 03:24:00,1790E-3,5C000400,-0724,0835,12155,025.8,045.4,0.259,764.0,01.16,0.508
2016-04-08 03:25:00,1798E-3,5C000400,-0724,0836,12000,025.8,045.4,0.259,764.0,01.16,0.508
2016-04-08 03:26:00,1852E-3,5C000400,-0724,0835,12078,025.8,045.3,0.259,764.0,01.16,0.508
2016-04-08 03:27:00,1652E-3,5C000400,-0724,0835,12262,025.8,045.4,0.259,764.0,01.16,0.508
2016-04-08 03:28:00,1664E-3,5C000400,-0724,0835,11978,025.8,045.3,0.259,764.0,01.16,0.508
2016-04-08 03:29:00,1789E-3,5C000400,-0724,0835,11935,025.9,045.3,0.259,764.0,01.16,0.508
2016-04-08 03:30:00,1685E-3,5C000400,-0724,0835,12162,025.9,045.4,0.259,764.0,01.16,0.508
2016-04-08 03:31:00,1854E-3,5C000400,-0724,0836,11960,025.9,045.3,0.259,764.0,01.16,0.508
2016-04-08 03:32:00,1770E-3,5C000400,-0724,0836,12195,025.9,045.4,0.259,764.0,01.16,0.508
2016-04-08 03:33:00,1687E-3,5C000400,-0724,0836,12142,025.9,045.4,0.259,764.0,01.16,0.508
2016-04-08 03:34:00,1843E-3,5C000400,-0724,0835,12146,025.9,045.3,0.259,764.0,01.16,0.508
2016-04-08 03:35:00,1834E-3,5C000400,-0724,0835,12073,025.9,045.4,0.259,764.0,01.16,0.508
2016-04-08 03:36:00,1888E-3,5C000400,-0724,0836,12211,025.9,045.4,0.259,764.0,01.16,0.508
2016-04-08 03:37:00,1736E-3,5C000400,-0724,0836,12198,025.9,045.3,0.259,764.0,01.16,0.508
2016-04-08 03:38:00,1814E-3,5C000400,-0724,0836,12170,025.9,045.4,0.259,764.0,01.16,0.508
2016-04-08 03:39:00,1792E-3,5C000400,-0724,0836,12187,026.0,045.4,0.259,764.0,01.16,0.508
2016-04-08 03:40:00,1754E-3,5C000400,-0724,0836,12105,026.0,045.4,0.259,764.0,01.16,0.508
2016-04-08 03:41:00,1716E-3,5C000400,-0724,0835,12089,026.0,045.4,0.259,764.0,01.16,0.508
2016-04-08 03:42:00,1730E-3,5C000400,-0724,0835,12160,026.0,045.4,0.259,764.1,01.16,0.508
2016-04-08 03:43:00,1855E-3,5C000400,-0724,0835,11915,026.0,045.4,0.259,764.1,01.16,0.508
2016-04-08 03:44:00,1686E-3,5C000400,-0724,0835,12265,026.0,045.4,0.259,764.1,01.16,0.508
2016-04-08 03:45:00,1890E-3,5C000400,-0724,0836,12086,026.0,045.4,0.259,764.1,01.16,0.508
2016-04-08 03:46:00,1777E-3,5C000400,-0724,0835,12308,026.0,045.4,0.259,764.1,01.16,0.508
2016-04-08 03:47:00,1671E-3,5C000400,-0724,0835,12205,026.0,045.4,0.259,764.1,01.16,0.508
2016-04-08 03:48:00,1972E-3,5C000400,-0724,0835,12101,026.0,045.4,0.259,764.1,01.16,0.508
2016-04-08 03:49:00,1818E-3,5C000400,-0724,0835,12173,026.0,045.4,0.259,764.1,01.16,0.508
2016-04-08 03:50:00,1749E-3,5C000400,-0724,0835,12188,026.1,045.4,0.259,764.1,01.16,0.508
2016-04-08 03:51:00,1825E-3,5C000400,-0724,0835,12297,026.1,045.4,0.259,764.1,01.16,0.508
2016-04-08 03:52:00,1829E-3,5C000400,-0724,0836,12120,026.1,045.4,0.259,764.1,01.16,0.508
2016-04-08 03:53:00,1728E-3,5C000400,-0724,0835,12123,026.1,045.4,0.259,764.1,01.16,0.508
2016-04-08 03:54:00,1808E-3,5C000400,-0724,0835,12067,026.1,045.4,0.259,764.1,01.16,0.508
2016-04-08 03:55:00,1712E-3,5C000400,-0724,0835,12090,026.1,045.4,0.259,764.1,01.16,0.508
2016-04-08 03:56:00,1781E-3,5C000400,-0724,0836,12272,026.1,045.3,0.258,764.1,01.16,0.508
2016-04-08 03:57:00,1838E-3,5C000400,-0724,0835,12041,026.1,045.4,0.259,764.1,01.16,0.508
2016-04-08 03:58:00,1932E-3,5C000400,-0724,0835,12113,026.1,045.4,0.259,764.1,01.16,0.508
2016-04-08 03:59:00,1793E-3,5C000400,-0724,0835,12241,026.1,045.4,0.259,764.0,01.16,0.508
2016-04-08 04:00:00,1722E-3,5C000400,-0724,0835,12101,026.1,045.3,0.259,764.0,01.16,0.508
2016-04-08 04:01:00,1819E-3,5C000400,-0724,0835,12203,026.2,045.3,0.259,764.0,01.16,0.508
2016-04-08 04:02:00,1781E-3,5C000400,-0724,0835,12251,026.2,045.4,0.258,764.0,01.16,0.508
2016-04-08 04:03:00,1791E-3,5C000400,-0724,0836,12163,026.2,045.4,0.258,764.0,01.16,0.508
2016-04-08 04:04:00,1810E-3,5C000400,-0724,0835,12024,026.2,045.4,0.259,764.0,01.16,0.508
2016-04-08 04:05:00,1856E-3,5C000400,-0724,0836,12092,026.2,045.4,0.259,764.0,01.16,0.508
2016-04-08 04:06:00,1758E-3,5C000400,-0724,0835,12056,026.2,045.4,0.259,764.0,01.16,0.508
2016-04-08 04:07:00,1747E-3,5C000400,-0724,0835,12233,026.2,045.4,0.259,764.0,01.16,0.508
2016-04-08 04:08:00,1846E-3,5C000400,-0724,0835,12230,026.2,045.4,0.259,764.0,01.16,0.508
2016-04-08 04:09:00,1686E-3,5C000400,-0724,0836,12085,026.2,045.4,0.259,763.9,01.16,0.508
2016-04-08 04:10:00,1656E-3,5C000400,-0724,0835,12218,026.3,045.4,0.259,764.0,01.16,0.508
2016-04-08 04:11:00,1675E-3,5C000400,-0724,0836,12057,026.3,045.4,0.259,764.0,01.16,0.508
2016-04-08 04:12:00,1772E-3,5C000400,-0724,0836,12079,026.3,045.4,0.259,764.0,01.16,0.508
2016-04-08 04:13:00,1782E-3,5C000400,-0724,0836,12101,026.3,045.4,0.259,764.0,01.16,0.508
2016-04-08 04:14:00,1739E-3,5C000400,-0724,0836,12066,026.3,045.4,0.258,764.0,01.16,0.508
2016-04-08 04:15:00,1898E-3,5C000400,-0724,0836,11911,026.3,045.4,0.258,764.0,01.16,0.508
2016-04-08 04:16:00,1723E-3,5C000400,-0724,0836,12029,026.3,045.3,0.258,764.0,01.16,0.508
2016-04-08 04:17:00,1804E-3,5C000400,-0724,0835,12042,026.3,045.4,0.258,764.0,01.16,0.508
2016-04-08 04:18:00,1810E-3,5C000400,-0724,0835,12233,026.3,045.4,0.258,764.0,01.16,0.508
2016-04-08 04:19:00,1761E-3,5C000400,-0724,0835,12000,026.3,045.4,0.258,764.0,01.16,0.508
2016-04-08 04:20:00,1764E-3,5C000400,-0724,0835,12084,026.3,045.4,0.259,764.0,01.16,0.508